Regional Weather Roundup
Issued by NWS

Home | Current Version | Previous Version | Text Only | Print | Product List | Glossary Off
Versions: 1 2 3 4 5 6 7 8 9 10 11 12 13 14 15 16 17 18 19 20 21 22 23 24 25 26 27 28 29 30 31 32 33 34 35 36 37 38 39 40 41 42 43 44 45 46 47 48 49 50

000
ASUS43 KIND 232359
RWRIN

WEATHER ROUNDUP FOR INDIANA
NATIONAL WEATHER SERVICE INDIANAPOLIS IN
800 PM EDT SAT MAY 23 2015

NOTE: "FAIR" INDICATES FEW OR NO CLOUDS BELOW 12,000 FEET WITH NO
SIGNIFICANT WEATHER AND/OR OBSTRUCTIONS TO VISIBILITY.

* - STATION DOES NOT REPORT WEATHER SUCH AS PRECIPITATION OR FOG.

+ - STATION NOT QUALITY CONTROLLED BY THE NATIONAL WEATHER SERVICE.
    USE DATA WITH CAUTION...ESPECIALLY DEWPOINT AND RELATIVE
    HUMIDITY OBSERVATIONS.

INZ001>003-010>013-019-020-240100-
NORTHWEST INDIANA

CITY           SKY/WX    TMP DP  RH WIND       PRES   REMARKS
GARY /AIRPORT/ MOSUNNY   72  48  43 NE8       30.20
RENSSELAER +   SUNNY     77  41  27 S10       30.22S

$$

LMZ046-743>745-240100-
SOUTHERN LAKE MICHIGAN

STATION/POSITION TIME  TEMP    WIND        PRES    WAVE
                       AIR SEA DIR/SP/G            HT
                 (UTC) (F)     (DEG/KT/KT) (MB)    (FT)
BURNS HARBOR     2300   64      70/ 12/ 15 1023.0F
MICHIGAN CITY    2300   63      40/ 14/ 15   N/A
5NW MICH CITY    2300   58 53   80/  6/  8   N/A     1

$$

INZ004-005-014>016-021>024-240100-
NORTH CENTRAL INDIANA

CITY           SKY/WX    TMP DP  RH WIND       PRES   REMARKS
GOSHEN         CLEAR     72  46  39 SW7       30.23S
6HR MIN TEMP:  72; 6HR MAX TEMP:  79;

SOUTH BEND     PTSUNNY   78  42  27 S8        30.22F
6HR MIN TEMP:  76; 6HR MAX TEMP:  81;

WARSAW +       CLEAR     77  45  31 CALM      30.23F

$$

INZ006>009-017-018-025>027-240100-
NORTHEAST INDIANA

CITY           SKY/WX    TMP DP  RH WIND       PRES   REMARKS
ANGOLA *+      CLEAR     75  68  78 W3        30.25F
FORT WAYNE     PTCLDY    74  49  41 S7        30.25F
6HR MIN TEMP:  74; 6HR MAX TEMP:  80;


$$

INZ028-029-035-036-043>045-051>053-240100-
WEST CENTRAL INDIANA

CITY           SKY/WX    TMP DP  RH WIND       PRES   REMARKS
CRAWFORDSVL +  MOSUNNY   73  30  20 S9        30.24S
6HR MIN TEMP:  73; 6HR MAX TEMP:  77;

GREENCASTLE +  SUNNY     70  45  40 S6        30.24F
LAFAYETTE      MOSUNNY   75  43  31 S7        30.22F
6HR MIN TEMP:  74; 6HR MAX TEMP:  79;

TERRE HAUTE    SUNNY     75  47  36 S7        30.23F
6HR MIN TEMP:  74; 6HR MAX TEMP:  78;


$$

INZ030>032-037>040-046>048-054>057-064-065-240100-
CENTRAL INDIANA

CITY           SKY/WX    TMP DP  RH WIND       PRES   REMARKS
COLUMBUS       CLEAR     73  39  29 SE7       30.25S
INDIANAPOLIS   MOCLDY    74  45  35 SE10      30.23F
6HR MIN TEMP:  74; 6HR MAX TEMP:  79;

-EAGLE CREEK   PTCLDY    75  43  31 S6        30.24F
6HR MIN TEMP:  75; 6HR MAX TEMP:  79;

KOKOMO *+      CLEAR     73  46  38 S8        30.24S
6HR MIN TEMP:  73; 6HR MAX TEMP:  81;

MT COMFORT *+  CLEAR     77  16  10 S8        30.26S
SHELBYVILLE    CLEAR     78  43  28 S9        30.24F
6HR MIN TEMP:  78; 6HR MAX TEMP:  82;


$$

INZ033-034-041-042-049-050-058-059-240100-
EAST CENTRAL INDIANA

CITY           SKY/WX    TMP DP  RH WIND       PRES   REMARKS
MUNCIE         PTCLDY    77  42  28 VRB6      30.25F
6HR MIN TEMP:  76; 6HR MAX TEMP:  80;


$$

INZ060-061-067>069-081>083-085>088-240100-
SOUTHWEST INDIANA

CITY           SKY/WX    TMP DP  RH WIND       PRES   REMARKS
EVANSVILLE     PTSUNNY   75  49  39 S5        30.23S
6HR MIN TEMP:  75; 6HR MAX TEMP:  79;

HUNTINGBURG *+ CLEAR     75  45  33 S5        30.24S
6HR MIN TEMP:  75; 6HR MAX TEMP:  79;


$$

INZ062-063-066-070>080-084-089>092-240100-
SOUTH CENTRAL AND SOUTHEAST INDIANA

CITY           SKY/WX    TMP DP  RH WIND       PRES   REMARKS
BLOOMINGTON    CLEAR     75  45  34 SE6       30.24F
6HR MIN TEMP:  75; 6HR MAX TEMP:  78;

MADISON *+     CLEAR     75  36  23 SE5       30.28S

$$




USA.gov is the U.S. government's official web portal to all federal, state and local government web resources and services.